TIANLIAN 1-02

Last updated on May 21, 2019, 3:10 a.m. UTC

1 37737U 11032A   19140.55456288 -.00000027  00000-0  00000+0 0  9991
2 37737   2.8555  75.1438 0008853 100.0785  73.2344  1.00269855 28804
UTC
Height (km)
Latitude
Longitude
Inclination
Orbital Period
UTC large
Height (km)
Speed (km/s)
/
Latitude / Longitude
Inclination (degrees)
Orbital Period (minutes)
Azimuth
Elevation
Range (km)
Doppler Factor
iOS Compass Heading
iOS Angle

Next 30 passes for location: Hong Kong

Rise time Rise Azimuth (degrees) Set time Set Azimuth (degrees) Duration Max altitude (degrees)

No matching passes for this satellites